St. Louis, MO

11:51 PM CDT on May 23, 2017 (GMT -0500)
Lambert-Saint Louis International

Weather History for KSTL - December, 2013

Change the Weather History Date:

Wednesday, December 4, 2013

  Actual Average Record
Temperature  
Mean Temperature 55 °F 38 °F  
Max Temperature 69 °F 46 °F 74 °F (2001)
Min Temperature 40 °F 30 °F 8 °F (1886)
Degree Days  
Heating Degree Days 10 27  
Month to date heating degree days 57 105  
Since 1 July heating degree days 927 931  
Cooling Degree Days 0 0  
Month to date cooling degree days 0 0  
Year to date cooling degree days 1728 1646  
Growing Degree Days 5 (Base 50)    
Moisture  
Dew Point 48 °F    
Average Humidity 73    
Maximum Humidity 93    
Minimum Humidity 53    
Precipitation  
Precipitation T in 0.10 in 0.94 in (1923)
Month to date precipitation T 0.42  
Year to date precipitation 40.72 38.54  
Snow  
Snow 0.00 in 0.10 in 3.50 in (2002)
Month to date snowfall 0.0 0.4  
Since 1 July snowfall T 1.1  
Snow Depth 0.00 in    
Sea Level Pressure  
Sea Level Pressure 29.66 in    
Wind  
Wind Speed 11 mph (SE)    
Max Wind Speed 22 mph    
Max Gust Speed 28 mph    
Visibility 4 miles    
Events Fog    
T = Trace of Precipitation, MM = Missing Value Source: NWS Daily Summary

Daily Weather History Graph

Daily Weather History Graph

Search for Another Location

Airport or City:

Trip Planner

Search our weather history database for the weather conditions in past years. The results will help you decide how hot, cold, wet, or windy it might be!

Date:

Astronomy

Dec. 04, 2013 Rise Set
Actual Time 7:03 AM CST 4:39 PM CST
Civil Twilight 6:34 AM CST 5:09 PM CST
Nautical Twilight 6:01 AM CST 5:42 PM CST
Astronomical Twilight 5:28 AM CST 6:14 PM CST
Moon 8:32 AM CST (12/4) 6:49 PM CST (12/4)
Length of Visible Light 10h 35m
Length of Day
9h 35m
Waxing Crescent, 4% of the Moon is Illuminated
Dec 4
Waxing Crescent
Dec 9
First Quarter
Dec 17
Full
Dec 25
Last Quarter
Jan 1
New

Hourly Weather History & Observations

Time (CST) Temp. Windchill Dew Point Humidity Pressure Visibility Wind Dir Wind Speed Gust Speed Precip Events Conditions
12:02 AM 51.8 °F - 48.2 °F 88% 29.69 in 4.0 mi South 8.1 mph - N/A   Mostly Cloudy
12:17 AM 51.8 °F - 48.2 °F 88% 29.69 in 5.0 mi South 5.8 mph - N/A   Overcast
12:51 AM 50.0 °F - 48.0 °F 93% 29.68 in 5.0 mi Calm Calm - N/A   Mostly Cloudy
1:03 AM 48.2 °F - 46.4 °F 93% 29.68 in 5.0 mi ESE 3.5 mph - N/A   Mostly Cloudy
1:13 AM 48.2 °F - 46.4 °F 93% 29.68 in 5.0 mi ESE 5.8 mph - N/A   Mostly Cloudy
1:21 AM 50.0 °F - 46.4 °F 87% 29.67 in 5.0 mi East 5.8 mph - N/A   Mostly Cloudy
1:28 AM 51.8 °F - 48.2 °F 88% 29.67 in 4.0 mi ESE 5.8 mph - N/A   Mostly Cloudy
1:51 AM 51.1 °F - 48.0 °F 89% 29.67 in 3.0 mi ESE 5.8 mph - N/A   Overcast
2:06 AM 50.0 °F - 48.2 °F 94% 29.67 in 2.0 mi ESE 6.9 mph - N/A   Overcast
2:40 AM 51.8 °F - 48.2 °F 88% 29.67 in 2.0 mi ESE 5.8 mph - N/A   Overcast
2:51 AM 51.1 °F - 48.0 °F 89% 29.66 in 2.0 mi East 5.8 mph - N/A   Overcast
2:58 AM 51.8 °F - 48.2 °F 88% 29.67 in 2.0 mi ESE 5.8 mph - 0.00 in   Light Drizzle
3:14 AM 51.8 °F - 48.2 °F 88% 29.67 in 2.5 mi ESE 4.6 mph - 0.00 in   Overcast
3:41 AM 50.0 °F - 48.2 °F 94% 29.66 in 2.5 mi ESE 5.8 mph - 0.00 in   Overcast
3:51 AM 52.0 °F - 48.9 °F 89% 29.66 in 2.5 mi SE 6.9 mph - 0.00 in   Overcast
3:57 AM 51.8 °F - 48.2 °F 88% 29.66 in 2.5 mi SE 6.9 mph - N/A   Overcast
4:51 AM 51.1 °F - 48.9 °F 92% 29.65 in 2.5 mi ESE 8.1 mph - N/A   Overcast
5:11 AM 51.8 °F - 48.2 °F 88% 29.65 in 2.5 mi ESE 6.9 mph - N/A   Overcast
5:34 AM 51.8 °F - 48.2 °F 88% 29.65 in 2.5 mi ESE 5.8 mph - N/A   Overcast
5:46 AM 51.8 °F - 48.2 °F 88% 29.66 in 2.5 mi ESE 5.8 mph - N/A   Overcast
5:51 AM 52.0 °F - 48.9 °F 89% 29.66 in 2.5 mi ESE 4.6 mph - N/A   Overcast
6:21 AM 51.8 °F - 48.2 °F 88% 29.65 in 1.0 mi ESE 10.4 mph - N/A   Overcast
6:30 AM 51.8 °F - 48.2 °F 88% 29.65 in 0.8 mi SE 10.4 mph - 0.00 in   Light Drizzle
6:51 AM 52.0 °F - 50.0 °F 93% 29.64 in 0.5 mi ESE 8.1 mph - 0.00 in Fog Drizzle
7:34 AM 51.8 °F - 51.8 °F 100% 29.65 in 0.2 mi ESE 8.1 mph - 0.00 in Fog Fog
7:51 AM 53.1 °F - 50.0 °F 89% 29.64 in 0.2 mi ESE 11.5 mph - 0.00 in Fog Fog
8:01 AM 53.6 °F - 51.8 °F 94% 29.64 in 0.2 mi ESE 10.4 mph - N/A Fog Fog
8:12 AM 53.6 °F - 51.8 °F 94% 29.64 in 0.5 mi ESE 13.8 mph - N/A Fog Fog
8:21 AM 53.6 °F - 51.8 °F 94% 29.63 in 0.2 mi SE 12.7 mph - N/A Fog Fog
8:51 AM 53.1 °F - 52.0 °F 96% 29.64 in 0.2 mi SE 6.9 mph - N/A Fog Fog
9:01 AM 53.6 °F - 51.8 °F 94% 29.64 in 0.8 mi SE 9.2 mph - N/A   Overcast
9:28 AM 53.6 °F - 51.8 °F 94% 29.63 in 1.0 mi SE 8.1 mph - N/A   Overcast
9:51 AM 55.0 °F - 52.0 °F 89% 29.63 in 1.0 mi SSE 10.4 mph - N/A   Overcast
10:27 AM 55.4 °F - 53.6 °F 94% 29.61 in 2.5 mi SSE 9.2 mph - N/A   Overcast
10:47 AM 57.2 °F - 53.6 °F 88% 29.60 in 4.0 mi SSE 10.4 mph - N/A   Overcast
10:51 AM 57.0 °F - 53.1 °F 87% 29.60 in 4.0 mi SSE 11.5 mph - N/A   Overcast
11:06 AM 59.0 °F - 53.6 °F 82% 29.59 in 5.0 mi SSE 11.5 mph - N/A   Haze
11:33 AM 60.8 °F - 53.6 °F 77% 29.58 in 6.0 mi South 11.5 mph - N/A   Haze
11:51 AM 61.0 °F - 53.1 °F 75% 29.56 in 6.0 mi South 8.1 mph - N/A   Haze
11:58 AM 62.6 °F - 53.6 °F 72% 29.56 in 7.0 mi South 10.4 mph - N/A   Mostly Cloudy
12:51 PM 66.0 °F - 52.0 °F 60% 29.52 in 9.0 mi South 16.1 mph 21.9 mph N/A   Scattered Clouds
1:51 PM 68.0 °F - 51.1 °F 55% 29.52 in 9.0 mi SSW 15.0 mph 25.3 mph N/A   Scattered Clouds
2:51 PM 69.1 °F - 51.1 °F 53% 29.53 in 10.0 mi SW 15.0 mph - N/A   Scattered Clouds
3:51 PM 66.9 °F - 51.1 °F 57% 29.57 in 10.0 mi SSW 12.7 mph 21.9 mph N/A   Scattered Clouds
4:51 PM 64.9 °F - 48.9 °F 56% 29.60 in 10.0 mi WSW 13.8 mph - N/A   Mostly Cloudy
5:51 PM 63.0 °F - 46.0 °F 54% 29.64 in 10.0 mi West 10.4 mph - N/A   Mostly Cloudy
6:11 PM 57.2 °F - 46.4 °F 67% 29.67 in 9.0 mi WNW 12.7 mph 23.0 mph N/A   Scattered Clouds
6:51 PM 55.0 °F - 46.0 °F 72% 29.71 in 8.0 mi WNW 16.1 mph 25.3 mph N/A   Scattered Clouds
7:51 PM 52.0 °F - 43.0 °F 71% 29.74 in 8.0 mi NW 10.4 mph 19.6 mph N/A   Scattered Clouds
8:20 PM 50.0 °F - 42.8 °F 76% 29.75 in 8.0 mi WNW 10.4 mph - N/A   Overcast
8:51 PM 48.0 °F - 39.9 °F 74% 29.80 in 8.0 mi WNW 17.3 mph 26.5 mph N/A   Overcast
9:51 PM 46.9 °F - 37.0 °F 68% 29.83 in 10.0 mi West 15.0 mph 24.2 mph N/A   Overcast
10:51 PM 43.0 °F 36.4 °F 35.1 °F 74% 29.86 in 10.0 mi WNW 12.7 mph - N/A   Overcast
11:51 PM 41.0 °F 34.3 °F 30.9 °F 67% 29.88 in 9.0 mi WNW 11.5 mph - N/A   Overcast